Vorticity
nan nan nan nan nan nan nan nan nan nan nan nan nan nan nan nan nan nan nan nan nan nan nan nan nan nan nan nan nan nan nan nan nan nan nan nan nan nan nan nan nan nan nan
nan 8 8 8 8 9 9 11 9 9 10 8 10 10 9 11 11 10 9 9 6 7 9 10 9 9 10 6 5 7 11 14 10 10 8 9 10 11 9 10 7 8 nan
nan 7 8 8 8 8 8 10 11 12 9 6 9 10 8 10 12 10 12 11 10 7 7 9 10 8 5 4 7 8 11 13 11 10 9 9 9 9 7 7 5 7 nan
nan 8 8 8 8 8 9 8 10 11 10 10 8 7 10 11 11 11 11 10 9 13 12 10 8 9 9 8 10 9 9 9 8 10 9 9 8 10 7 8 7 10 nan
nan 9 8 8 8 8 8 8 8 9 10 10 8 10 12 11 10 12 10 10 11 11 12 9 8 11 12 16 18 15 10 10 10 9 10 8 8 8 8 7 8 11 nan
nan 10 9 8 7 8 8 8 8 9 8 9 8 8 9 6 7 18 16 11 9 7 11 11 11 8 6 10 12 15 17 16 12 8 9 9 10 7 8 9 9 8 nan
nan 9 10 8 8 8 8 8 7 7 8 8 8 8 8 3 5 13 13 10 10 11 11 9 8 7 8 4 4 6 7 7 10 11 11 12 11 8 10 11 7 9 nan
nan 8 10 9 8 8 8 8 7 7 8 8 8 6 5 2 4 9 12 12 8 9 8 9 9 7 8 11 7 6 6 6 8 12 11 7 9 14 15 9 9 10 nan
nan 8 9 10 9 8 8 7 7 8 7 7 8 7 7 6 5 5 12 13 7 7 7 10 12 8 4 14 15 9 8 8 7 9 10 11 8 9 12 14 13 9 nan
nan 9 9 11 10 9 9 8 8 8 8 7 8 6 8 9 6 5 12 11 9 7 9 4 9 16 8 10 16 12 10 7 9 7 4 5 6 7 8 10 11 10 nan
nan 10 10 10 9 9 9 9 9 8 8 9 9 9 8 8 11 6 5 13 12 9 10 9 10 10 6 4 8 13 11 12 12 6 9 11 11 10 10 12 9 9 nan
nan 10 9 9 8 11 9 9 9 8 8 11 9 8 10 10 10 10 8 4 9 17 12 12 16 12 7 5 2 5 8 13 10 9 10 11 11 13 11 9 10 12 nan
nan 10 10 8 9 11 9 8 8 10 9 10 9 10 11 11 9 12 8 4 6 7 10 16 15 8 5 8 11 6 5 8 9 10 11 11 11 11 13 16 15 12 nan
nan 9 9 9 10 8 8 10 9 10 9 11 10 10 10 10 8 10 10 7 8 12 11 6 3 6 5 8 16 10 7 10 8 11 14 14 12 9 9 12 13 11 nan
nan 9 9 9 11 8 9 10 9 10 10 14 15 11 11 12 15 15 12 10 11 13 7 7 5 6 10 10 9 14 16 12 9 9 13 15 13 11 10 9 10 13 nan
nan 9 9 9 10 7 10 7 4 15 17 2 15 24 17 17 23 16 14 15 16 11 5 9 9 10 11 12 11 11 11 12 14 13 10 11 10 9 10 13 13 9 nan
nan 8 8 10 9 9 10 9 4 -2 11 10 4 9 21 21 11 10 10 13 14 8 8 9 10 12 11 13 16 11 9 8 10 12 10 11 10 9 8 9 10 8 nan
nan 7 9 11 8 11 9 10 9 8 5 0 2 9 12 10 9 10 6 0 4 7 11 15 17 14 11 13 13 11 11 10 8 7 9 9 9 9 11 9 9 11 nan
nan 9 10 8 12 10 10 10 10 10 10 11 3 5 7 6 10 12 8 2 8 13 14 13 12 14 13 12 11 9 8 9 11 10 11 8 8 9 12 11 11 11 nan
nan 10 7 10 11 10 11 10 10 10 11 11 11 10 6 6 8 8 7 10 15 14 15 12 12 12 13 8 9 11 10 12 8 8 9 12 11 10 9 11 10 9 nan
nan 9 11 11 9 12 10 12 11 12 10 10 15 19 12 4 11 13 13 13 14 15 13 12 9 9 11 11 9 11 10 8 10 11 9 10 11 11 8 9 11 11 nan
nan 12 12 9 11 10 13 10 10 12 13 12 14 19 11 10 14 13 14 16 13 11 11 12 12 10 10 11 8 8 10 10 10 9 11 10 8 10 9 9 9 10 nan
nan 12 11 14 9 10 14 14 10 11 12 16 17 12 9 14 13 14 13 11 14 12 12 11 11 10 7 9 14 12 11 9 9 9 9 10 9 9 11 10 9 9 nan
nan 13 13 12 12 10 11 13 11 10 13 16 10 11 14 13 13 13 12 11 12 10 9 9 10 13 11 9 12 12 8 11 15 10 6 9 12 9 10 9 8 11 nan
nan 15 12 11 12 11 12 10 12 16 14 12 12 14 15 12 11 12 11 9 8 10 11 11 12 11 12 12 12 9 7 10 11 13 14 8 8 9 13 10 11 12 nan
nan nan nan nan nan nan nan nan nan nan nan nan nan nan nan nan nan nan nan nan nan nan nan nan nan nan nan nan nan nan nan nan nan nan nan nan nan nan nan nan nan nan nan
CAPE
0 0 0 1 14 50 157 288 107 549 151 381 325 439 449 456 872 1091 847 635 258 161 61 35 5 1 1 0 0 0 0 0 10 42 31 81 144 10 0 3 0 0 0
0 0 0 0 2 16 132 273 319 244 186 62 193 332 278 362 380 649 590 176 77 108 31 16 5 7 0 0 0 0 44 57 4 21 48 8 0 19 0 17 0 0 0
0 0 0 0 1 0 9 15 275 365 323 95 67 46 99 323 437 606 114 306 276 189 22 4 10 5 0 0 2 15 136 103 19 0 0 2 2 4 0 20 54 66 7
0 0 0 0 0 4 0 0 6 58 203 265 247 117 18 60 293 501 545 591 282 133 134 117 156 35 98 372 270 115 81 33 59 0 0 2 0 4 9 2 0 0 0
0 0 0 0 0 5 4 5 0 0 0 2 72 111 11 88 271 680 670 805 764 626 518 280 420 125 85 216 190 97 37 14 0 0 0 0 0 0 0 1 2 2 3
0 0 0 0 0 0 2 5 0 0 0 0 0 0 0 0 0 0 73 285 299 164 0 0 0 0 0 0 0 0 0 387 99 1 0 0 100 6 0 0 0 0 0
0 0 0 0 0 0 0 0 0 2 0 0 0 0 0 0 0 0 0 30 85 165 126 19 0 0 0 0 0 0 0 0 0 60 11 77 346 276 318 440 233 167 40
0 0 0 0 0 0 0 0 24 12 17 0 0 0 0 0 0 0 0 195 292 39 1 0 0 0 0 0 0 0 0 0 0 0 36 291 237 330 618 463 636 482 226
0 0 0 0 0 0 0 0 77 150 195 2 0 0 0 0 0 0 0 54 0 0 0 0 0 0 0 0 0 0 0 0 0 0 0 0 0 0 0 2 0 0 0
0 0 0 0 0 0 0 44 112 76 44 0 0 0 0 0 0 0 0 0 0 0 0 0 0 0 0 0 0 0 0 0 0 0 0 0 0 0 0 0 0 0 0
0 0 0 0 0 0 176 213 90 2 18 0 0 0 0 0 0 0 0 0 0 0 0 0 0 0 0 0 0 0 0 0 0 0 0 0 0 0 0 0 0 0 0
0 0 0 0 0 0 104 61 0 98 23 0 0 0 0 0 0 0 0 0 0 0 0 0 0 0 0 0 0 0 0 0 0 0 0 0 0 0 0 0 0 0 0
0 0 0 0 0 0 16 14 0 26 0 0 0 0 0 0 0 0 0 0 0 0 0 0 0 0 0 0 0 0 0 0 0 0 0 0 0 0 0 0 13 0 0
6 8 31 8 0 0 1 0 0 0 0 0 0 0 0 0 0 0 0 0 0 0 0 0 0 0 0 0 0 0 0 0 0 0 0 0 1 0 11 0 0 0 0
354 139 193 4 5 41 20 0 0 8 0 0 0 0 0 0 0 0 0 0 0 0 0 0 0 0 0 0 0 0 0 0 0 6 2 0 0 0 0 0 0 0 2
591 195 20 0 4 0 0 0 0 0 0 0 0 0 0 0 0 0 0 0 0 0 0 0 0 0 6 11 28 67 3 0 0 0 0 0 0 0 0 0 0 0 0
670 471 25 0 0 0 0 0 0 0 0 0 0 0 0 0 0 0 0 0 0 0 0 0 17 43 27 40 56 39 0 0 0 0 0 0 0 0 0 0 0 0 0
871 53 122 75 6 0 0 0 0 0 0 0 0 0 0 0 0 0 0 0 0 0 0 12 46 36 67 34 0 0 0 0 0 0 0 0 0 0 0 0 0 0 0
1014 352 273 157 9 0 0 0 0 0 0 0 0 0 0 0 0 0 0 0 0 0 0 24 72 16 0 0 0 0 0 0 0 0 0 0 0 0 0 0 0 0 0
869 426 220 271 142 8 7 0 0 0 0 0 0 0 0 0 0 0 0 0 5 105 10 4 0 0 0 0 0 0 0 0 0 0 0 0 0 0 0 0 0 0 0
539 634 164 145 42 69 21 5 5 0 0 0 0 0 0 0 0 0 0 20 104 0 0 0 0 0 0 0 0 0 0 0 0 0 0 0 0 0 0 0 0 0 1
652 595 479 325 329 133 115 66 64 0 1 0 0 0 0 4 19 85 31 0 0 0 0 0 0 0 0 0 0 0 0 0 0 0 0 0 0 0 0 0 0 0 0
430 410 544 456 390 83 31 19 5 19 1 34 11 0 0 82 6 0 0 0 0 0 0 0 0 0 0 0 0 0 0 0 0 0 0 0 0 0 0 0 0 0 2
351 327 304 349 218 108 112 20 0 0 0 102 3 17 35 0 0 0 0 3 1 0 0 0 0 0 0 0 0 0 0 0 0 0 0 0 0 0 0 0 0 0 6
394 614 511 435 274 162 129 68 53 16 34 3 0 0 0 0 2 3 1 0 0 0 0 0 0 0 0 0 0 0 0 0 0 0 0 0 0 0 0 0 0 0 0
216 316 275 299 243 146 341 317 146 131 0 0 0 0 0 1 0 0 0 0 0 0 0 0 0 0 0 0 0 0 0 0 0 0 0 0 0 0 0 0 0 0 0